Big Rapids, MI

4:45 AM EDT on October 21, 2019 (GMT -0400)
Roben-Hood

Weather History for KRQB - August, 2019

Change the Weather History Date:

Tuesday, August 6, 2019

  Actual Average Record
Temperature  
Mean Temperature 72 °F -  
Max Temperature 80 °F 79 °F 95 °F (2001)
Min Temperature 62 °F 54 °F 39 °F (2004)
Cooling Degree Days 6    
Growing Degree Days 22 (Base 50)    
Moisture  
Dew Point 64 °F    
Average Humidity 83    
Maximum Humidity 97    
Minimum Humidity 53    
Precipitation  
Precipitation 0.70 in - - ()
Sea Level Pressure  
Sea Level Pressure 29.80 in    
Wind  
Wind Speed 5 mph (WNW)    
Max Wind Speed 13 mph    
Max Gust Speed 18 mph    
Visibility 10 miles    
Events Rain    
Averages and records for this station are not official NWS values.
T = Trace of Precipitation, MM = Missing Value Source: NWS Daily Summary

Daily Weather History Graph

Daily Weather History Graph

Search for Another Location

Airport or City:

Astronomy

Aug. 06, 2019 Rise Set
Actual Time 6:36 AM EDT 8:58 PM EDT
Civil Twilight 6:03 AM EDT 9:30 PM EDT
Nautical Twilight 5:23 AM EDT 10:10 PM EDT
Astronomical Twilight 4:39 AM EDT 10:55 PM EDT
Moon 1:12 PM EDT (8/6) 12:01 AM EDT (8/6)
Length of Visible Light 15h 27m
Length of Day
14h 22m
Waxing Crescent, 38% of the Moon is Illuminated
Aug 6
Waxing Crescent
Aug 7
First Quarter
Aug 15
Full
Aug 23
Last Quarter
Aug 30
New

Hourly Weather History & Observations

Time (EDT) Temp. Heat Index Dew Point Humidity Pressure Visibility Wind Dir Wind Speed Gust Speed Precip Events Conditions
12:17 AM 65.5 °F - 64.4 °F 96% 29.82 in 10.0 mi SE 4.6 mph - 0.03 in Rain Light Rain
12:35 AM 65.3 °F - 64.4 °F 97% 29.82 in 7.0 mi West 8.1 mph - 0.06 in Rain Light Rain
12:36 AM 65.3 °F - 64.4 °F 97% 29.82 in 7.0 mi WNW 6.9 mph - 0.07 in Rain Light Rain
12:55 AM 65.3 °F - 64.4 °F 97% 29.79 in 7.0 mi SSW 6.9 mph - 0.10 in Rain Light Rain
1:00 AM 65.5 °F - 64.4 °F 96% 29.79 in 10.0 mi SSE 4.6 mph - N/A Rain Light Rain
1:18 AM 65.3 °F - 64.2 °F 96% 29.78 in 7.0 mi SE 8.1 mph - 0.03 in Rain Rain
1:35 AM 65.3 °F - 64.0 °F 96% 29.76 in 10.0 mi SSE 12.7 mph - 0.06 in Rain Rain
1:55 AM 65.3 °F - 64.0 °F 96% 29.76 in 10.0 mi SSW 6.9 mph - 0.10 in Rain Light Rain
1:56 AM 65.3 °F - 64.0 °F 96% 29.76 in 10.0 mi SSW 8.1 mph - 0.10 in Rain Light Rain
2:15 AM 65.1 °F - 63.9 °F 96% 29.77 in 10.0 mi SW 9.2 mph - 0.03 in   Scattered Clouds
2:37 AM 65.3 °F - 64.4 °F 97% 29.79 in 10.0 mi West 5.8 mph - 0.06 in Rain Light Rain
2:55 AM 65.5 °F - 64.4 °F 96% 29.79 in 10.0 mi WNW 4.6 mph - 0.09 in   Overcast
2:56 AM 65.5 °F - 64.4 °F 96% 29.79 in 10.0 mi WNW 4.6 mph - 0.10 in   Overcast
3:15 AM 65.3 °F - 64.2 °F 96% 29.79 in 10.0 mi WNW 6.9 mph - 0.02 in   Overcast
3:38 AM 65.3 °F - 64.2 °F 96% 29.79 in 10.0 mi North 3.5 mph - 0.06 in   Overcast
3:56 AM 65.3 °F - 64.0 °F 96% 29.78 in 10.0 mi Calm Calm - 0.08 in Rain Light Rain
4:16 AM 65.3 °F - 64.2 °F 96% 29.78 in 10.0 mi SE 3.5 mph - 0.02 in   Overcast
4:35 AM 65.1 °F - 64.0 °F 96% 29.78 in 10.0 mi Calm Calm - 0.04 in   Overcast
4:59 AM 64.8 °F - 63.9 °F 97% 29.78 in 10.0 mi WSW 3.5 mph - 0.06 in   Overcast
5:18 AM 64.6 °F - 63.7 °F 97% 29.79 in 10.0 mi Calm Calm - 0.02 in   Overcast
5:36 AM 64.8 °F - 63.9 °F 97% 29.79 in 10.0 mi NW 3.5 mph - 0.04 in   Overcast
5:55 AM 64.6 °F - 63.7 °F 97% 29.79 in 10.0 mi North 4.6 mph - 0.05 in   Overcast
6:15 AM 64.8 °F - 63.9 °F 97% 29.79 in 10.0 mi Calm Calm - 0.01 in   Overcast
6:16 AM 64.8 °F - 63.7 °F 96% 29.79 in 10.0 mi Calm Calm - 0.01 in   Overcast
6:39 AM 64.6 °F - 63.7 °F 97% 29.79 in 10.0 mi SE 3.5 mph - 0.03 in   Overcast
6:57 AM 64.8 °F - 63.9 °F 97% 29.79 in 10.0 mi ESE 5.8 mph - 0.04 in   Overcast
7:15 AM 65.3 °F - 64.2 °F 96% 29.79 in 10.0 mi West 3.5 mph - 0.01 in   Overcast
7:35 AM 65.8 °F - 64.6 °F 96% 29.80 in 10.0 mi SW 3.5 mph - 0.02 in   Overcast
7:36 AM 65.8 °F - 64.6 °F 96% 29.80 in 10.0 mi Calm Calm - 0.02 in   Overcast
7:55 AM 66.4 °F - 65.3 °F 96% 29.80 in 10.0 mi WNW 6.9 mph - 0.03 in   Overcast
8:18 AM 67.1 °F - 65.5 °F 95% 29.79 in 10.0 mi Calm Calm - 0.01 in   Overcast
8:36 AM 67.1 °F - 65.5 °F 95% 29.80 in 10.0 mi WNW 8.1 mph - 0.02 in   Overcast
8:55 AM 67.3 °F - 65.5 °F 94% 29.80 in 10.0 mi WNW 8.1 mph - 0.03 in   Overcast
9:15 AM 68.2 °F - 66.0 °F 93% 29.81 in 10.0 mi West 10.4 mph - 0.01 in   Overcast
9:39 AM 68.9 °F - 65.5 °F 89% 29.82 in 10.0 mi Calm Calm - 0.02 in   Overcast
9:57 AM 69.3 °F - 64.6 °F 85% 29.82 in 10.0 mi West 9.2 mph - 0.02 in   Overcast
10:15 AM 69.3 °F - 64.4 °F 84% 29.82 in 10.0 mi WNW 10.4 mph - N/A   Overcast
10:16 AM 69.1 °F - 64.4 °F 85% 29.82 in 10.0 mi WNW 9.2 mph - N/A   Overcast
10:35 AM 69.4 °F - 64.2 °F 83% 29.82 in 10.0 mi West 8.1 mph - 0.01 in   Overcast
10:55 AM 69.6 °F - 64.4 °F 83% 29.82 in 10.0 mi WNW 8.1 mph - 0.01 in   Overcast
11:18 AM 70.7 °F - 64.6 °F 81% 29.82 in 10.0 mi West 3.5 mph - 0.01 in   Overcast
11:36 AM 70.5 °F - 64.2 °F 80% 29.82 in 10.0 mi West 6.9 mph - 0.01 in   Overcast
11:55 AM 70.0 °F - 64.2 °F 82% 29.83 in 10.0 mi West 9.2 mph - 0.02 in   Overcast
12:15 PM 71.1 °F - 64.4 °F 79% 29.83 in 10.0 mi West 5.8 mph - 0.01 in   Overcast
12:16 PM 71.1 °F - 64.4 °F 79% 29.83 in 10.0 mi West 6.9 mph - 0.01 in   Overcast
12:39 PM 72.9 °F - 64.4 °F 75% 29.82 in 10.0 mi WSW 3.5 mph - 0.01 in   Overcast
12:57 PM 73.4 °F - 64.6 °F 74% 29.82 in 10.0 mi West 3.5 mph - 0.01 in   Overcast
1:15 PM 72.9 °F - 64.0 °F 74% 29.82 in 10.0 mi WNW 5.8 mph - N/A   Overcast
1:35 PM 73.4 °F - 63.9 °F 72% 29.82 in 10.0 mi West 5.8 mph - N/A   Overcast
1:36 PM 73.4 °F - 63.9 °F 72% 29.82 in 10.0 mi West 6.9 mph - N/A   Overcast
1:58 PM 74.8 °F - 64.0 °F 69% 29.81 in 10.0 mi West 4.6 mph - 0.01 in   Mostly Cloudy
2:16 PM 75.7 °F - 63.5 °F 66% 29.80 in 10.0 mi West 5.8 mph - N/A   Mostly Cloudy
2:35 PM 73.4 °F - 64.6 °F 74% 29.81 in 10.0 mi Calm Calm - 0.01 in   Mostly Cloudy
2:36 PM 73.4 °F - 64.6 °F 74% 29.81 in 10.0 mi NW 3.5 mph - 0.01 in   Mostly Cloudy
2:55 PM 77.0 °F - 63.7 °F 63% 29.80 in 10.0 mi Calm Calm - 0.01 in   Scattered Clouds
3:19 PM 77.2 °F - 60.6 °F 56% 29.80 in 10.0 mi NNW 3.5 mph - N/A   Mostly Cloudy
3:37 PM 79.0 °F - 62.1 °F 56% 29.80 in 10.0 mi NW 3.5 mph - 0.01 in   Mostly Cloudy
3:55 PM 79.3 °F - 63.3 °F 58% 29.79 in 10.0 mi NNE 5.8 mph - 0.01 in   Mostly Cloudy
3:56 PM 79.5 °F - 63.3 °F 58% 29.80 in 10.0 mi NNE 5.8 mph - 0.01 in   Mostly Cloudy
4:15 PM 77.9 °F - 62.4 °F 59% 29.79 in 10.0 mi Calm Calm - N/A   Mostly Cloudy
4:16 PM 77.9 °F - 62.2 °F 58% 29.79 in 10.0 mi Calm Calm - N/A   Mostly Cloudy
4:35 PM 78.1 °F - 62.2 °F 58% 29.80 in 10.0 mi NNE 6.9 mph - N/A   Mostly Cloudy
4:40 PM 78.4 °F - 61.7 °F 56% 29.80 in 10.0 mi Calm Calm - N/A   Mostly Cloudy
4:58 PM 80.4 °F 81.6 °F 62.6 °F 54% 29.79 in 10.0 mi West 5.8 mph - 0.01 in   Mostly Cloudy
5:16 PM 79.2 °F - 62.2 °F 56% 29.79 in 10.0 mi West 6.9 mph - N/A   Mostly Cloudy
5:35 PM 79.9 °F - 61.5 °F 53% 29.79 in 10.0 mi NNW 3.5 mph - N/A   Scattered Clouds
5:36 PM 79.9 °F - 61.7 °F 54% 29.79 in 10.0 mi WNW 4.6 mph - N/A   Scattered Clouds
5:55 PM 80.4 °F 81.6 °F 62.4 °F 54% 29.79 in 10.0 mi WNW 12.7 mph 16.1 mph N/A   Scattered Clouds
6:00 PM 79.9 °F - 62.4 °F 55% 29.79 in 10.0 mi NW 3.5 mph 16.1 mph N/A   Scattered Clouds
6:18 PM 79.9 °F - 62.4 °F 55% 29.79 in 10.0 mi WNW 9.2 mph 16.1 mph N/A   Scattered Clouds
6:36 PM 78.3 °F - 63.7 °F 61% 29.79 in 10.0 mi WNW 10.4 mph 18.4 mph N/A   Scattered Clouds
6:55 PM 74.5 °F - 65.1 °F 72% 29.80 in 10.0 mi NNW 9.2 mph - N/A Rain Rain
6:56 PM 74.1 °F - 65.3 °F 74% 29.80 in 10.0 mi NNW 9.2 mph - N/A Rain Heavy Rain
7:15 PM 71.8 °F - 67.3 °F 86% 29.80 in 10.0 mi North 4.6 mph - N/A Rain Light Rain
7:39 PM 72.7 °F - 68.0 °F 85% 29.80 in 10.0 mi North 5.8 mph - 0.01 in Rain Light Rain
7:57 PM 73.4 °F - 68.0 °F 83% 29.80 in 10.0 mi Calm Calm - 0.01 in   Overcast
8:15 PM 72.9 °F - 65.3 °F 77% 29.80 in 10.0 mi NW 5.8 mph - N/A   Scattered Clouds
8:16 PM 72.9 °F - 65.3 °F 77% 29.80 in 10.0 mi NNW 5.8 mph - N/A   Scattered Clouds
8:35 PM 71.8 °F - 64.9 °F 79% 29.80 in 10.0 mi NNW 4.6 mph - N/A   Scattered Clouds
8:55 PM 70.7 °F - 64.8 °F 81% 29.80 in 10.0 mi NW 3.5 mph - N/A   Scattered Clouds
9:00 PM 70.3 °F - 65.1 °F 83% 29.80 in 10.0 mi West 9.2 mph - N/A   Scattered Clouds
9:18 PM 68.9 °F - 65.8 °F 90% 29.80 in 10.0 mi West 4.6 mph - N/A   Clear
9:35 PM 68.0 °F - 65.3 °F 91% 29.81 in 10.0 mi West 10.4 mph - N/A   Clear
9:55 PM 67.1 °F - 64.4 °F 91% 29.81 in 10.0 mi West 5.8 mph - N/A   Clear
9:56 PM 66.9 °F - 64.4 °F 92% 29.81 in 10.0 mi West 4.6 mph - N/A   Clear
10:15 PM 65.7 °F - 63.5 °F 93% 29.82 in 10.0 mi Calm Calm - N/A   Clear
10:38 PM 65.3 °F - 63.1 °F 93% 29.82 in 10.0 mi Calm Calm - N/A   Clear
10:56 PM 65.5 °F - 63.5 °F 93% 29.82 in 10.0 mi WNW 8.1 mph - N/A   Clear
11:15 PM 64.2 °F - 61.9 °F 92% 29.82 in 10.0 mi NW 3.5 mph - N/A   Clear
11:16 PM 64.2 °F - 61.9 °F 92% 29.82 in 10.0 mi WNW 3.5 mph - N/A   Clear
11:35 PM 63.9 °F - 62.1 °F 94% 29.82 in 10.0 mi Calm Calm - N/A   Clear
11:40 PM 63.3 °F - 61.7 °F 94% 29.82 in 10.0 mi Calm Calm - N/A   Clear
11:58 PM 62.4 °F - 61.0 °F 95% 29.82 in 10.0 mi Calm Calm - N/A   Clear